Tabellarische Ansicht des 10.11.2019


Die einzelnen Werte des Tages

Uhrzeit Temperatur Luftdruck Luftfeuchte Wind Hi-Wind Taupunkt THW Index Wind Chill Heat Index Solar- strahlung Regen

00:00

3.4 C

1005.7 hpa

87 %

0.0 km/h aus 117

1.6 km/h aus SE

1.4 C

3.3 C

3.4 C

3.3 C

0 W/m

0.00 mm

00:05

3.3 C

1005.7 hpa

87 %

0.0 km/h aus 115

3.2 km/h aus SE

1.3 C

3.2 C

3.3 C

3.2 C

0 W/m

0.00 mm

00:10

3.2 C

1005.7 hpa

87 %

1.6 km/h aus 115

4.8 km/h aus SE

1.2 C

3.1 C

3.2 C

3.1 C

0 W/m

0.00 mm

00:15

2.9 C

1005.7 hpa

87 %

1.6 km/h aus 114

4.8 km/h aus SE

1.0 C

2.8 C

2.9 C

2.8 C

0 W/m

0.00 mm

00:20

2.8 C

1005.7 hpa

87 %

3.2 km/h aus 115

4.8 km/h aus SE

0.8 C

2.4 C

2.5 C

2.7 C

0 W/m

0.00 mm

00:25

2.7 C

1005.7 hpa

87 %

3.2 km/h aus 116

4.8 km/h aus SE

0.8 C

2.3 C

2.4 C

2.6 C

0 W/m

0.00 mm

00:30

2.6 C

1005.7 hpa

87 %

3.2 km/h aus 118

4.8 km/h aus ESE

0.6 C

2.1 C

2.2 C

2.4 C

0 W/m

0.00 mm

00:35

2.4 C

1005.7 hpa

87 %

3.2 km/h aus 117

6.4 km/h aus ESE

0.4 C

1.9 C

2.1 C

2.3 C

0 W/m

0.00 mm

00:40

2.3 C

1005.7 hpa

87 %

3.2 km/h aus 115

6.4 km/h aus ESE

0.3 C

1.8 C

1.9 C

2.2 C

0 W/m

0.00 mm

00:45

2.2 C

1005.8 hpa

87 %

3.2 km/h aus 117

6.4 km/h aus ESE

0.2 C

1.7 C

1.8 C

2.1 C

0 W/m

0.00 mm

00:50

2.1 C

1005.8 hpa

87 %

3.2 km/h aus 117

6.4 km/h aus ESE

0.1 C

1.6 C

1.7 C

1.9 C

0 W/m

0.00 mm

00:55

1.9 C

1005.8 hpa

87 %

1.6 km/h aus 114

4.8 km/h aus ESE

0.0 C

1.8 C

1.9 C

1.8 C

0 W/m

0.00 mm

01:00

1.9 C

1005.8 hpa

87 %

3.2 km/h aus 113

4.8 km/h aus ESE

0.0 C

1.4 C

1.5 C

1.8 C

0 W/m

0.00 mm

01:05

1.8 C

1005.8 hpa

87 %

1.6 km/h aus 115

4.8 km/h aus ESE

-0.2 C

1.7 C

1.8 C

1.7 C

0 W/m

0.00 mm

01:10

1.7 C

1005.8 hpa

87 %

1.6 km/h aus 116

6.4 km/h aus ESE

-0.2 C

1.6 C

1.7 C

1.6 C

0 W/m

0.00 mm

01:15

1.7 C

1005.8 hpa

88 %

4.8 km/h aus 116

8.0 km/h aus ESE

-0.1 C

0.4 C

0.4 C

1.7 C

0 W/m

0.00 mm

01:20

1.8 C

1005.8 hpa

89 %

4.8 km/h aus 117

9.7 km/h aus S

0.2 C

0.5 C

0.6 C

1.8 C

0 W/m

0.00 mm

01:25

1.9 C

1005.8 hpa

89 %

4.8 km/h aus 117

9.7 km/h aus SE

0.3 C

0.7 C

0.7 C

1.9 C

0 W/m

0.00 mm

01:30

2.1 C

1005.8 hpa

89 %

8.0 km/h aus 117

9.7 km/h aus SE

0.4 C

-0.4 C

-0.3 C

2.0 C

0 W/m

0.00 mm

01:35

2.1 C

1005.8 hpa

90 %

8.0 km/h aus 116

9.7 km/h aus SSE

0.6 C

-0.4 C

-0.3 C

2.0 C

0 W/m

0.00 mm

01:40

2.0 C

1005.8 hpa

90 %

8.0 km/h aus 114

9.7 km/h aus SE

0.5 C

-0.4 C

-0.4 C

1.9 C

0 W/m

0.00 mm

01:45

1.9 C

1005.8 hpa

90 %

6.4 km/h aus 115

8.0 km/h aus SE

0.4 C

-0.1 C

0.0 C

1.8 C

0 W/m

0.00 mm

01:50

1.8 C

1005.8 hpa

90 %

4.8 km/h aus 117

6.4 km/h aus SE

0.4 C

0.5 C

0.6 C

1.8 C

0 W/m

0.00 mm

01:55

1.8 C

1005.8 hpa

90 %

6.4 km/h aus 116

8.0 km/h aus SE

0.3 C

-0.2 C

-0.1 C

1.7 C

0 W/m

0.00 mm

02:00

1.7 C

1006.0 hpa

90 %

8.0 km/h aus 116

9.7 km/h aus SSE

0.3 C

-0.8 C

-0.7 C

1.7 C

0 W/m

0.00 mm

02:05

1.8 C

1006.0 hpa

91 %

8.0 km/h aus 116

11.3 km/h aus SSE

0.5 C

-0.7 C

-0.7 C

1.7 C

0 W/m

0.00 mm

02:10

1.9 C

1006.0 hpa

91 %

6.4 km/h aus 116

9.7 km/h aus SSE

0.6 C

-0.1 C

0.0 C

1.8 C

0 W/m

0.00 mm

02:15

1.9 C

1006.1 hpa

91 %

0.0 km/h aus 114

3.2 km/h aus SSE

0.6 C

1.8 C

1.9 C

1.8 C

0 W/m

0.00 mm

02:20

1.9 C

1006.1 hpa

91 %

0.0 km/h aus 115

1.6 km/h aus SSE

0.6 C

1.8 C

1.9 C

1.8 C

0 W/m

0.00 mm

02:25

1.8 C

1006.1 hpa

91 %

0.0 km/h aus 115

1.6 km/h aus ESE

0.5 C

1.8 C

1.8 C

1.8 C

0 W/m

0.00 mm

02:30

1.8 C

1006.1 hpa

91 %

0.0 km/h aus 117

1.6 km/h aus ESE

0.5 C

1.7 C

1.8 C

1.7 C

0 W/m

0.00 mm

02:35

1.7 C

1006.1 hpa

91 %

0.0 km/h aus 117

0.0 km/h aus ---

0.4 C

1.6 C

1.7 C

1.6 C

0 W/m

0.00 mm

02:40

1.6 C

1006.1 hpa

90 %

0.0 km/h aus 118

0.0 km/h aus ---

0.1 C

1.5 C

1.6 C

1.5 C

0 W/m

0.00 mm

02:45

1.4 C

1006.2 hpa

90 %

0.0 km/h aus 117

0.0 km/h aus ---

-0.1 C

1.3 C

1.4 C

1.3 C

0 W/m

0.00 mm

02:50

1.3 C

1006.2 hpa

91 %

0.0 km/h aus 116

3.2 km/h aus ESE

0.0 C

1.2 C

1.3 C

1.2 C

0 W/m

0.00 mm

02:55

1.2 C

1006.2 hpa

90 %

0.0 km/h aus 115

1.6 km/h aus ESE

-0.3 C

1.1 C

1.2 C

1.1 C

0 W/m

0.00 mm

03:00

1.1 C

1006.2 hpa

90 %

0.0 km/h aus 113

1.6 km/h aus ESE

-0.3 C

1.0 C

1.1 C

1.0 C

0 W/m

0.00 mm

03:05

1.0 C

1006.2 hpa

90 %

0.0 km/h aus 113

0.0 km/h aus ---

-0.5 C

0.9 C

1.0 C

0.9 C

0 W/m

0.00 mm

03:10

0.9 C

1006.2 hpa

90 %

0.0 km/h aus 116

0.0 km/h aus ---

-0.6 C

0.8 C

0.9 C

0.8 C

0 W/m

0.00 mm

03:15

0.8 C

1006.2 hpa

90 %

0.0 km/h aus 117

0.0 km/h aus ---

-0.7 C

0.7 C

0.8 C

0.7 C

0 W/m

0.00 mm

03:20

0.7 C

1006.2 hpa

90 %

0.0 km/h aus 117

0.0 km/h aus ---

-0.7 C

0.6 C

0.7 C

0.6 C

0 W/m

0.00 mm

03:25

0.6 C

1006.2 hpa

90 %

0.0 km/h aus 117

1.6 km/h aus ESE

-0.8 C

0.5 C

0.6 C

0.5 C

0 W/m

0.00 mm

03:30

0.5 C

1006.3 hpa

90 %

1.6 km/h aus 117

3.2 km/h aus ESE

-1.0 C

0.4 C

0.5 C

0.4 C

0 W/m

0.00 mm

03:35

0.4 C

1006.3 hpa

90 %

1.6 km/h aus 117

1.6 km/h aus ESE

-1.0 C

0.3 C

0.4 C

0.3 C

0 W/m

0.00 mm

03:40

0.4 C

1006.3 hpa

90 %

1.6 km/h aus 115

3.2 km/h aus ESE

-1.0 C

0.3 C

0.4 C

0.3 C

0 W/m

0.00 mm

03:45

0.4 C

1006.4 hpa

91 %

0.0 km/h aus 114

1.6 km/h aus ESE

-0.9 C

0.3 C

0.4 C

0.3 C

0 W/m

0.00 mm

03:50

0.4 C

1006.4 hpa

91 %

0.0 km/h aus 115

3.2 km/h aus ESE

-0.9 C

0.3 C

0.4 C

0.3 C

0 W/m

0.00 mm

03:55

0.3 C

1006.4 hpa

91 %

1.6 km/h aus 116

3.2 km/h aus ESE

-1.0 C

0.3 C

0.3 C

0.3 C

0 W/m

0.00 mm

04:00

0.3 C

1006.6 hpa

91 %

1.6 km/h aus 117

3.2 km/h aus ESE

-1.0 C

0.2 C

0.3 C

0.2 C

0 W/m

0.00 mm

04:05

0.2 C

1006.6 hpa

91 %

3.2 km/h aus 116

3.2 km/h aus ESE

-1.1 C

-0.4 C

-0.3 C

0.2 C

0 W/m

0.00 mm

04:10

0.2 C

1006.6 hpa

91 %

1.6 km/h aus 117

3.2 km/h aus ESE

-1.1 C

0.1 C

0.2 C

0.1 C

0 W/m

0.00 mm

04:15

0.1 C

1006.6 hpa

91 %

0.0 km/h aus 117

0.0 km/h aus ---

-1.2 C

0.1 C

0.1 C

0.1 C

0 W/m

0.00 mm

04:20

0.1 C

1006.6 hpa

91 %

0.0 km/h aus 117

0.0 km/h aus ---

-1.2 C

0.0 C

0.1 C

0.0 C

0 W/m

0.00 mm

04:25

-0.1 C

1006.6 hpa

91 %

0.0 km/h aus 114

0.0 km/h aus ---

-1.3 C

-0.1 C

-0.1 C

-0.1 C

0 W/m

0.00 mm

04:30

-0.1 C

1006.7 hpa

91 %

0.0 km/h aus 113

0.0 km/h aus ---

-1.3 C

-0.1 C

-0.1 C

-0.1 C

0 W/m

0.00 mm

04:35

-0.1 C

1006.7 hpa

91 %

0.0 km/h aus 114

0.0 km/h aus ---

-1.4 C

-0.2 C

-0.1 C

-0.2 C

0 W/m

0.00 mm

04:40

-0.2 C

1006.7 hpa

91 %

0.0 km/h aus 117

0.0 km/h aus ---

-1.5 C

-0.2 C

-0.2 C

-0.2 C

0 W/m

0.00 mm

04:45

-0.3 C

1006.8 hpa

91 %

0.0 km/h aus 116

0.0 km/h aus ---

-1.6 C

-0.3 C

-0.3 C

-0.3 C

0 W/m

0.00 mm

04:50

-0.3 C

1006.8 hpa

91 %

4.8 km/h aus 118

8.0 km/h aus ESE

-1.6 C

-1.9 C

-1.9 C

-0.4 C

0 W/m

0.00 mm

04:55

-0.3 C

1006.8 hpa

91 %

4.8 km/h aus 116

8.0 km/h aus ESE

-1.6 C

-1.9 C

-1.9 C

-0.4 C

0 W/m

0.00 mm

05:00

-0.3 C

1006.9 hpa

91 %

6.4 km/h aus 117

9.7 km/h aus ESE

-1.6 C

-2.6 C

-2.6 C

-0.4 C

0 W/m

0.00 mm

05:05

-0.2 C

1006.9 hpa

91 %

4.8 km/h aus 117

11.3 km/h aus SE

-1.5 C

-1.8 C

-1.7 C

-0.3 C

0 W/m

0.00 mm

05:10

-0.2 C

1006.9 hpa

91 %

1.6 km/h aus 115

4.8 km/h aus ESE

-1.5 C

-0.2 C

-0.2 C

-0.2 C

0 W/m

0.00 mm

05:15

-0.2 C

1007.2 hpa

92 %

3.2 km/h aus 114

6.4 km/h aus ESE

-1.3 C

-0.8 C

-0.8 C

-0.2 C

0 W/m

0.00 mm

05:20

-0.1 C

1007.2 hpa

92 %

3.2 km/h aus 114

4.8 km/h aus E

-1.2 C

-0.7 C

-0.6 C

-0.1 C

0 W/m

0.00 mm

05:25

0.0 C

1007.2 hpa

92 %

4.8 km/h aus 117

6.4 km/h aus E

-1.1 C

-1.6 C

-1.5 C

-0.1 C

0 W/m

0.00 mm

05:30

0.1 C

1007.3 hpa

92 %

4.8 km/h aus 116

6.4 km/h aus E

-1.1 C

-1.5 C

-1.4 C

0.0 C

0 W/m

0.00 mm

05:35

0.1 C

1007.3 hpa

92 %

3.2 km/h aus 117

6.4 km/h aus E

-1.1 C

-0.6 C

-0.5 C

0.0 C

0 W/m

0.00 mm

05:40

0.1 C

1007.3 hpa

92 %

4.8 km/h aus 117

6.4 km/h aus ESE

-1.1 C

-1.5 C

-1.4 C

0.0 C

0 W/m

0.00 mm

05:45

0.1 C

1007.5 hpa

92 %

6.4 km/h aus 117

8.0 km/h aus SE

-1.1 C

-2.2 C

-2.1 C

0.0 C

0 W/m

0.00 mm

05:50

0.1 C

1007.5 hpa

92 %

4.8 km/h aus 117

6.4 km/h aus SE

-1.1 C

-1.5 C

-1.4 C

0.0 C

0 W/m

0.00 mm

05:55

0.0 C

1007.5 hpa

92 %

3.2 km/h aus 115

4.8 km/h aus SE

-1.1 C

-0.6 C

-0.6 C

-0.1 C

0 W/m

0.00 mm

06:00

0.0 C

1007.7 hpa

92 %

0.0 km/h aus 114

3.2 km/h aus SE

-1.1 C

-0.1 C

0.0 C

-0.1 C

0 W/m

0.00 mm

06:05

-0.1 C

1007.7 hpa

92 %

0.0 km/h aus 114

0.0 km/h aus ---

-1.2 C

-0.1 C

-0.1 C

-0.1 C

0 W/m

0.00 mm

06:10

-0.1 C

1007.7 hpa

92 %

0.0 km/h aus 117

0.0 km/h aus ---

-1.3 C

-0.2 C

-0.1 C

-0.2 C

0 W/m

0.00 mm

06:15

-0.2 C

1007.8 hpa

92 %

0.0 km/h aus 117

0.0 km/h aus ---

-1.3 C

-0.2 C

-0.2 C

-0.2 C

0 W/m

0.00 mm

06:20

-0.2 C

1007.8 hpa

92 %

0.0 km/h aus 117

1.6 km/h aus SE

-1.4 C

-0.3 C

-0.2 C

-0.3 C

0 W/m

0.00 mm

06:25

-0.3 C

1007.8 hpa

92 %

1.6 km/h aus 117

3.2 km/h aus SE

-1.4 C

-0.3 C

-0.3 C

-0.3 C

0 W/m

0.00 mm

06:30

-0.3 C

1007.8 hpa

92 %

0.0 km/h aus 117

3.2 km/h aus SE

-1.5 C

-0.4 C

-0.3 C

-0.4 C

0 W/m

0.00 mm

06:35

-0.4 C

1007.8 hpa

92 %

0.0 km/h aus 116

0.0 km/h aus ---

-1.6 C

-0.5 C

-0.4 C

-0.5 C

0 W/m

0.00 mm

06:40

-0.5 C

1007.8 hpa

92 %

0.0 km/h aus 116

1.6 km/h aus SE

-1.6 C

-0.6 C

-0.5 C

-0.6 C

0 W/m

0.00 mm

06:45

-0.6 C

1008.0 hpa

92 %

1.6 km/h aus 114

3.2 km/h aus SE

-1.7 C

-0.7 C

-0.6 C

-0.7 C

0 W/m

0.00 mm

06:50

-0.7 C

1008.0 hpa

92 %

1.6 km/h aus 114

3.2 km/h aus SE

-1.8 C

-0.8 C

-0.7 C

-0.8 C

0 W/m

0.00 mm

06:55

-0.7 C

1008.0 hpa

92 %

3.2 km/h aus 115

3.2 km/h aus SE

-1.9 C

-1.5 C

-1.4 C

-0.8 C

0 W/m

0.00 mm

07:00

-0.8 C

1008.3 hpa

92 %

3.2 km/h aus 118

4.8 km/h aus SE

-1.9 C

-1.6 C

-1.4 C

-0.9 C

0 W/m

0.00 mm

07:05

-0.8 C

1008.3 hpa

92 %

3.2 km/h aus 117

4.8 km/h aus SE

-2.0 C

-1.6 C

-1.5 C

-0.9 C

0 W/m

0.00 mm

07:10

-0.9 C

1008.3 hpa

92 %

3.2 km/h aus 117

4.8 km/h aus SE

-2.0 C

-1.7 C

-1.6 C

-1.0 C

0 W/m

0.00 mm

07:15

-0.9 C

1008.4 hpa

92 %

3.2 km/h aus 115

4.8 km/h aus ESE

-2.1 C

-1.7 C

-1.6 C

-1.1 C

0 W/m

0.00 mm

07:20

-0.9 C

1008.4 hpa

92 %

3.2 km/h aus 116

4.8 km/h aus ESE

-2.1 C

-1.7 C

-1.6 C

-1.1 C

2 W/m

0.00 mm

07:25

-0.9 C

1008.4 hpa

92 %

3.2 km/h aus 116

6.4 km/h aus ESE

-2.1 C

-1.7 C

-1.6 C

-1.1 C

5 W/m

0.00 mm

07:30

-0.9 C

1008.7 hpa

92 %

4.8 km/h aus 117

6.4 km/h aus ESE

-2.1 C

-2.7 C

-2.6 C

-1.1 C

8 W/m

0.00 mm

07:35

-1.0 C

1008.7 hpa

92 %

3.2 km/h aus 113

4.8 km/h aus ESE

-2.1 C

-1.8 C

-1.7 C

-1.1 C

11 W/m

0.00 mm

07:40

-1.0 C

1008.7 hpa

92 %

3.2 km/h aus 114

4.8 km/h aus ESE

-2.1 C

-1.8 C

-1.7 C

-1.1 C

13 W/m

0.00 mm

07:45

-1.0 C

1008.9 hpa

92 %

3.2 km/h aus 116

4.8 km/h aus ESE

-2.1 C

-1.8 C

-1.7 C

-1.1 C

16 W/m

0.00 mm

07:50

-0.9 C

1008.9 hpa

92 %

3.2 km/h aus 117

4.8 km/h aus ESE

-2.1 C

-1.7 C

-1.6 C

-1.1 C

19 W/m

0.00 mm

07:55

-0.9 C

1008.9 hpa

92 %

3.2 km/h aus 115

6.4 km/h aus ESE

-2.1 C

-1.7 C

-1.6 C

-1.1 C

21 W/m

0.00 mm

08:00

-0.9 C

1009.1 hpa

92 %

3.2 km/h aus 116

4.8 km/h aus ESE

-2.1 C

-1.7 C

-1.6 C

-1.1 C

25 W/m

0.00 mm

08:05

-0.8 C

1009.1 hpa

92 %

3.2 km/h aus 117

4.8 km/h aus ESE

-2.0 C

-1.6 C

-1.5 C

-0.9 C

32 W/m

0.00 mm

08:10

-0.8 C

1009.1 hpa

93 %

3.2 km/h aus 118

6.4 km/h aus ESE

-1.8 C

-1.5 C

-1.4 C

-0.8 C

45 W/m

0.00 mm

08:15

-0.6 C

1009.2 hpa

93 %

3.2 km/h aus 116

6.4 km/h aus ESE

-1.5 C

-1.2 C

-1.2 C

-0.6 C

43 W/m

0.00 mm

08:20

-0.3 C

1009.2 hpa

93 %

3.2 km/h aus 115

4.8 km/h aus E

-1.3 C

-1.0 C

-0.9 C

-0.4 C

44 W/m

0.00 mm

08:25

0.9 C

1009.2 hpa

94 %

3.2 km/h aus 114

6.4 km/h aus E

0.0 C

0.3 C

0.4 C

0.8 C

72 W/m

0.00 mm

08:30

1.2 C

1009.4 hpa

94 %

3.2 km/h aus 116

6.4 km/h aus SE

0.3 C

0.7 C

0.7 C

1.1 C

82 W/m

0.00 mm

08:35

1.4 C

1009.4 hpa

94 %

4.8 km/h aus 117

8.0 km/h aus ESE

0.5 C

0.0 C

0.1 C

1.3 C

79 W/m

0.00 mm

08:40

1.6 C

1009.4 hpa

94 %

4.8 km/h aus 116

8.0 km/h aus ESE

0.7 C

0.3 C

0.3 C

1.6 C

82 W/m

0.00 mm

08:45

1.8 C

1009.4 hpa

94 %

4.8 km/h aus 117

6.4 km/h aus ESE

1.0 C

0.6 C

0.6 C

1.8 C

92 W/m

0.00 mm

08:50

2.2 C

1009.4 hpa

94 %

3.2 km/h aus 116

6.4 km/h aus ESE

1.3 C

1.8 C

1.8 C

2.2 C

100 W/m

0.00 mm

08:55

2.3 C

1009.4 hpa

94 %

3.2 km/h aus 116

6.4 km/h aus ESE

1.5 C

2.0 C

2.0 C

2.3 C

109 W/m

0.00 mm

09:00

2.6 C

1009.6 hpa

93 %

3.2 km/h aus 114

4.8 km/h aus E

1.5 C

2.2 C

2.2 C

2.6 C

118 W/m

0.00 mm

09:05

2.8 C

1009.6 hpa

93 %

3.2 km/h aus 116

8.0 km/h aus ESE

1.8 C

2.6 C

2.6 C

2.8 C

128 W/m

0.25 mm

09:10

3.1 C

1009.6 hpa

93 %

1.6 km/h aus 117

4.8 km/h aus ESE

2.0 C

3.1 C

3.1 C

3.1 C

138 W/m

0.00 mm

09:15

3.3 C

1009.8 hpa

92 %

1.6 km/h aus 118

4.8 km/h aus E

2.1 C

3.2 C

3.3 C

3.2 C

146 W/m

0.00 mm

09:20

3.6 C

1009.8 hpa

91 %

3.2 km/h aus 117

6.4 km/h aus E

2.2 C

3.3 C

3.3 C

3.5 C

155 W/m

0.00 mm

09:25

3.7 C

1009.8 hpa

90 %

3.2 km/h aus 116

6.4 km/h aus E

2.2 C

3.4 C

3.4 C

3.6 C

164 W/m

0.00 mm

09:30

3.8 C

1009.9 hpa

91 %

3.2 km/h aus 115

4.8 km/h aus E

2.5 C

3.6 C

3.7 C

3.8 C

173 W/m

0.00 mm

09:35

3.9 C

1009.9 hpa

90 %

4.8 km/h aus 114

6.4 km/h aus E

2.5 C

2.9 C

2.9 C

3.9 C

183 W/m

0.00 mm

09:40

4.1 C

1009.9 hpa

90 %

4.8 km/h aus 116

6.4 km/h aus ESE

2.6 C

3.1 C

3.2 C

4.1 C

193 W/m

0.00 mm

09:45

4.2 C

1009.9 hpa

90 %

4.8 km/h aus 117

6.4 km/h aus ESE

2.7 C

3.2 C

3.3 C

4.2 C

203 W/m

0.00 mm

09:50

4.3 C

1009.9 hpa

89 %

4.8 km/h aus 117

6.4 km/h aus ESE

2.7 C

3.3 C

3.4 C

4.3 C

211 W/m

0.00 mm

09:55

4.3 C

1009.9 hpa

88 %

3.2 km/h aus 117

4.8 km/h aus ESE

2.5 C

4.1 C

4.2 C

4.3 C

221 W/m

0.00 mm

10:00

4.4 C

1009.9 hpa

88 %

3.2 km/h aus 114

4.8 km/h aus ESE

2.6 C

4.3 C

4.3 C

4.4 C

232 W/m

0.00 mm

10:05

4.7 C

1009.9 hpa

88 %

4.8 km/h aus 116

8.0 km/h aus ESE

2.9 C

3.8 C

3.9 C

4.7 C

243 W/m

0.00 mm

10:10

4.8 C

1009.9 hpa

87 %

4.8 km/h aus 117

8.0 km/h aus ESE

2.9 C

3.9 C

4.0 C

4.7 C

250 W/m

0.00 mm

10:15

5.2 C

1009.9 hpa

88 %

6.4 km/h aus 117

9.7 km/h aus S

3.3 C

3.7 C

3.8 C

5.1 C

255 W/m

0.00 mm

10:20

5.2 C

1009.9 hpa

87 %

4.8 km/h aus 117

6.4 km/h aus SSE

3.2 C

4.3 C

4.4 C

5.2 C

260 W/m

0.00 mm

10:25

5.5 C

1009.9 hpa

86 %

6.4 km/h aus 114

11.3 km/h aus SSE

3.3 C

4.1 C

4.2 C

5.4 C

266 W/m

0.00 mm

10:30

5.4 C

1010.1 hpa

85 %

8.0 km/h aus 114

9.7 km/h aus SSE

3.1 C

3.6 C

3.7 C

5.3 C

270 W/m

0.00 mm

10:35

5.4 C

1010.1 hpa

85 %

8.0 km/h aus 117

11.3 km/h aus SSE

3.1 C

3.6 C

3.7 C

5.3 C

275 W/m

0.00 mm

10:40

5.7 C

1010.1 hpa

85 %

6.4 km/h aus 116

11.3 km/h aus SSE

3.4 C

4.3 C

4.4 C

5.6 C

279 W/m

0.00 mm

10:45

5.9 C

1010.2 hpa

84 %

8.0 km/h aus 115

11.3 km/h aus SSE

3.4 C

4.1 C

4.2 C

5.8 C

283 W/m

0.00 mm

10:50

5.8 C

1010.2 hpa

83 %

8.0 km/h aus 116

14.5 km/h aus SSE

3.2 C

4.0 C

4.1 C

5.7 C

286 W/m

0.00 mm

10:55

5.9 C

1010.2 hpa

83 %

8.0 km/h aus 113

9.7 km/h aus SE

3.2 C

4.1 C

4.2 C

5.8 C

289 W/m

0.00 mm

11:00

6.0 C

1010.1 hpa

84 %

8.0 km/h aus 116

9.7 km/h aus SSE

3.5 C

4.2 C

4.3 C

5.9 C

293 W/m

0.00 mm

11:05

6.1 C

1010.1 hpa

84 %

6.4 km/h aus 116

11.3 km/h aus S

3.6 C

4.8 C

4.9 C

6.1 C

298 W/m

0.00 mm

11:10

6.1 C

1010.1 hpa

82 %

9.7 km/h aus 117

14.5 km/h aus SSE

3.2 C

3.9 C

4.0 C

5.9 C

299 W/m

0.00 mm

11:15

6.2 C

1010.1 hpa

83 %

9.7 km/h aus 117

11.3 km/h aus SE

3.5 C

4.0 C

4.1 C

6.1 C

301 W/m

0.00 mm

11:20

6.4 C

1010.1 hpa

82 %

8.0 km/h aus 114

12.9 km/h aus SSE

3.5 C

4.7 C

4.8 C

6.3 C

303 W/m

0.00 mm

11:25

6.6 C

1010.1 hpa

83 %

8.0 km/h aus 117

14.5 km/h aus SSE

3.9 C

5.0 C

5.1 C

6.6 C

302 W/m

0.00 mm

11:30

6.7 C

1010.0 hpa

82 %

8.0 km/h aus 117

14.5 km/h aus SSE

3.8 C

5.0 C

5.1 C

6.6 C

305 W/m

0.00 mm

11:35

6.7 C

1010.0 hpa

81 %

8.0 km/h aus 117

11.3 km/h aus SSE

3.6 C

5.0 C

5.1 C

6.6 C

308 W/m

0.00 mm

11:40

6.6 C

1010.0 hpa

82 %

9.7 km/h aus 117

14.5 km/h aus SSE

3.7 C

4.5 C

4.6 C

6.4 C

308 W/m

0.00 mm

11:45

6.6 C

1009.9 hpa

82 %

9.7 km/h aus 114

14.5 km/h aus SSE

3.7 C

4.5 C

4.6 C

6.4 C

309 W/m

0.00 mm

11:50

6.7 C

1009.9 hpa

82 %

8.0 km/h aus 115

11.3 km/h aus SE

3.9 C

5.1 C

5.2 C

6.6 C

307 W/m

0.00 mm

11:55

6.8 C

1009.9 hpa

81 %

8.0 km/h aus 117

11.3 km/h aus SE

3.8 C

5.2 C

5.3 C

6.7 C

304 W/m

0.00 mm

12:00

7.0 C

1009.9 hpa

80 %

8.0 km/h aus 115

11.3 km/h aus S

3.8 C

5.4 C

5.5 C

6.9 C

307 W/m

0.00 mm

12:05

7.0 C

1009.9 hpa

81 %

6.4 km/h aus 117

9.7 km/h aus SSE

4.0 C

5.8 C

5.9 C

6.9 C

312 W/m

0.00 mm

12:10

7.1 C

1009.9 hpa

81 %

4.8 km/h aus 114

9.7 km/h aus S

4.1 C

6.4 C

6.6 C

7.0 C

312 W/m

0.00 mm

12:15

7.1 C

1010.1 hpa

79 %

4.8 km/h aus 115

8.0 km/h aus S

3.7 C

6.4 C

6.6 C

7.0 C

310 W/m

0.00 mm

12:20

7.2 C

1010.1 hpa

80 %

6.4 km/h aus 116

9.7 km/h aus SE

3.9 C

6.0 C

6.1 C

7.1 C

310 W/m

0.00 mm

12:25

7.2 C

1010.1 hpa

79 %

4.8 km/h aus 118

9.7 km/h aus SSE

3.8 C

6.6 C

6.7 C

7.1 C

309 W/m

0.00 mm

12:30

6.9 C

1010.1 hpa

79 %

3.2 km/h aus 117

9.7 km/h aus S

3.5 C

6.8 C

6.9 C

6.8 C

308 W/m

0.00 mm

12:35

7.2 C

1010.1 hpa

79 %

4.8 km/h aus 114

9.7 km/h aus S

3.8 C

6.5 C

6.6 C

7.1 C

306 W/m

0.00 mm

12:40

7.2 C

1010.1 hpa

79 %

4.8 km/h aus 115

9.7 km/h aus SE

3.8 C

6.5 C

6.6 C

7.1 C

303 W/m

0.00 mm

12:45

7.3 C

1010.0 hpa

80 %

6.4 km/h aus 117

9.7 km/h aus ESE

4.1 C

6.1 C

6.2 C

7.2 C

298 W/m

0.00 mm

12:50

7.5 C

1010.0 hpa

80 %

6.4 km/h aus 116

8.0 km/h aus SSE

4.3 C

6.4 C

6.5 C

7.4 C

293 W/m

0.00 mm

12:55

7.3 C

1010.0 hpa

79 %

4.8 km/h aus 116

9.7 km/h aus SSE

3.9 C

6.6 C

6.7 C

7.2 C

290 W/m

0.00 mm

13:00

7.3 C

1009.9 hpa

79 %

4.8 km/h aus 114

8.0 km/h aus SE

3.9 C

6.6 C

6.7 C

7.2 C

284 W/m

0.00 mm

13:05

7.4 C

1009.9 hpa

79 %

4.8 km/h aus 114

8.0 km/h aus SSW

4.0 C

6.8 C

6.9 C

7.3 C

281 W/m

0.00 mm

13:10

7.2 C

1009.9 hpa

78 %

4.8 km/h aus 117

8.0 km/h aus SSW

3.6 C

6.5 C

6.7 C

7.1 C

264 W/m

0.00 mm

13:15

7.3 C

1009.9 hpa

78 %

3.2 km/h aus 117

8.0 km/h aus SW

3.7 C

7.1 C

7.3 C

7.1 C

257 W/m

0.00 mm

13:20

7.5 C

1009.9 hpa

78 %

4.8 km/h aus 116

9.7 km/h aus S

3.9 C

6.8 C

7.0 C

7.3 C

100 W/m

0.00 mm

13:25

7.3 C

1009.9 hpa

77 %

4.8 km/h aus 114

9.7 km/h aus SW

3.5 C

6.6 C

6.7 C

7.1 C

85 W/m

0.00 mm

13:30

7.5 C

1009.9 hpa

78 %

6.4 km/h aus 116

9.7 km/h aus SSE

3.9 C

6.3 C

6.5 C

7.3 C

101 W/m

0.00 mm

13:35

7.4 C

1009.9 hpa

78 %

4.8 km/h aus 116

6.4 km/h aus SSE

3.9 C

6.8 C

6.9 C

7.3 C

128 W/m

0.00 mm

13:40

7.3 C

1009.9 hpa

78 %

3.2 km/h aus 117

6.4 km/h aus SSE

3.7 C

7.1 C

7.3 C

7.1 C

84 W/m

0.00 mm

13:45

7.5 C

1010.0 hpa

79 %

6.4 km/h aus 116

8.0 km/h aus SE

4.1 C

6.4 C

6.5 C

7.4 C

74 W/m

0.00 mm

13:50

7.6 C

1010.0 hpa

79 %

4.8 km/h aus 116

8.0 km/h aus SE

4.1 C

6.9 C

7.1 C

7.4 C

98 W/m

0.00 mm

13:55

7.6 C

1010.0 hpa

78 %

3.2 km/h aus 114

6.4 km/h aus SE

4.0 C

7.4 C

7.6 C

7.4 C

106 W/m

0.00 mm

14:00

7.5 C

1009.9 hpa

78 %

4.8 km/h aus 115

8.0 km/h aus S

3.9 C

6.8 C

7.0 C

7.3 C

95 W/m

0.00 mm

14:05

7.3 C

1009.9 hpa

76 %

3.2 km/h aus 116

6.4 km/h aus S

3.4 C

7.1 C

7.3 C

7.1 C

98 W/m

0.00 mm

14:10

7.2 C

1009.9 hpa

77 %

1.6 km/h aus 117

6.4 km/h aus S

3.5 C

7.1 C

7.2 C

7.1 C

119 W/m

0.00 mm

14:15

7.3 C

1010.2 hpa

78 %

3.2 km/h aus 117

8.0 km/h aus SSE

3.7 C

7.1 C

7.3 C

7.1 C

87 W/m

0.00 mm

14:20

7.5 C

1010.2 hpa

77 %

4.8 km/h aus 116

9.7 km/h aus S

3.7 C

6.8 C

7.0 C

7.3 C

67 W/m

0.00 mm

14:25

7.5 C

1010.2 hpa

77 %

6.4 km/h aus 114

12.9 km/h aus SSE

3.7 C

6.3 C

6.5 C

7.3 C

58 W/m

0.00 mm

14:30

7.4 C

1010.4 hpa

77 %

6.4 km/h aus 115

9.7 km/h aus SSE

3.7 C

6.2 C

6.4 C

7.3 C

61 W/m

0.00 mm

14:35

7.6 C

1010.4 hpa

77 %

8.0 km/h aus 118

9.7 km/h aus S

3.8 C

5.9 C

6.1 C

7.4 C

73 W/m

0.00 mm

14:40

7.5 C

1010.4 hpa

77 %

6.4 km/h aus 116

8.0 km/h aus S

3.7 C

6.3 C

6.5 C

7.3 C

48 W/m

0.00 mm

14:45

7.3 C

1010.4 hpa

76 %

4.8 km/h aus 117

8.0 km/h aus SSW

3.4 C

6.6 C

6.8 C

7.1 C

45 W/m

0.00 mm

14:50

7.3 C

1010.4 hpa

77 %

6.4 km/h aus 116

9.7 km/h aus S

3.6 C

6.1 C

6.3 C

7.2 C

43 W/m

0.00 mm

14:55

7.2 C

1010.4 hpa

75 %

6.4 km/h aus 114

9.7 km/h aus SW

3.1 C

5.9 C

6.2 C

7.0 C

40 W/m

0.00 mm

15:00

7.2 C

1010.5 hpa

76 %

6.4 km/h aus 115

9.7 km/h aus S

3.2 C

5.9 C

6.1 C

6.9 C

40 W/m

0.00 mm

15:05

7.1 C

1010.5 hpa

76 %

6.4 km/h aus 116

9.7 km/h aus SSW

3.1 C

5.7 C

5.9 C

6.8 C

38 W/m

0.00 mm

15:10

7.0 C

1010.5 hpa

77 %

4.8 km/h aus 116

9.7 km/h aus SSW

3.2 C

6.3 C

6.4 C

6.8 C

35 W/m

0.00 mm

15:15

6.9 C

1010.5 hpa

77 %

4.8 km/h aus 117

8.0 km/h aus SW

3.2 C

6.2 C

6.4 C

6.8 C

33 W/m

0.00 mm

15:20

6.8 C

1010.5 hpa

78 %

4.8 km/h aus 115

6.4 km/h aus SW

3.3 C

6.1 C

6.2 C

6.7 C

32 W/m

0.00 mm

15:25

6.8 C

1010.5 hpa

78 %

4.8 km/h aus 114

6.4 km/h aus SSW

3.3 C

6.1 C

6.2 C

6.7 C

31 W/m

0.00 mm

15:30

6.7 C

1010.7 hpa

79 %

3.2 km/h aus 116

6.4 km/h aus SSW

3.3 C

6.6 C

6.7 C

6.6 C

30 W/m

0.00 mm

15:35

6.7 C

1010.7 hpa

79 %

4.8 km/h aus 117

6.4 km/h aus SSW

3.3 C

6.0 C

6.1 C

6.6 C

28 W/m

0.00 mm

15:40

6.7 C

1010.7 hpa

79 %

4.8 km/h aus 118

8.0 km/h aus SSW

3.3 C

5.9 C

6.1 C

6.6 C

26 W/m

0.00 mm

15:45

6.7 C

1010.8 hpa

79 %

4.8 km/h aus 117

8.0 km/h aus S

3.3 C

5.9 C

6.1 C

6.6 C

24 W/m

0.00 mm

15:50

6.6 C

1010.8 hpa

80 %

4.8 km/h aus 117

6.4 km/h aus S

3.4 C

5.9 C

6.0 C

6.5 C

22 W/m

0.00 mm

15:55

6.6 C

1010.8 hpa

80 %

4.8 km/h aus 115

6.4 km/h aus S

3.4 C

5.8 C

5.9 C

6.4 C

20 W/m

0.00 mm

16:00

6.5 C

1010.9 hpa

79 %

3.2 km/h aus 113

4.8 km/h aus S

3.1 C

6.3 C

6.5 C

6.3 C

18 W/m

0.00 mm

16:05

6.4 C

1010.9 hpa

79 %

3.2 km/h aus 117

4.8 km/h aus S

3.0 C

6.2 C

6.4 C

6.2 C

16 W/m

0.00 mm

16:10

6.2 C

1010.9 hpa

79 %

3.2 km/h aus 117

4.8 km/h aus S

2.8 C

6.1 C

6.2 C

6.1 C

13 W/m

0.00 mm

16:15

6.0 C

1010.9 hpa

78 %

3.2 km/h aus 117

3.2 km/h aus S

2.5 C

5.8 C

6.0 C

5.8 C

11 W/m

0.00 mm

16:20

5.8 C

1010.9 hpa

78 %

1.6 km/h aus 116

3.2 km/h aus S

2.2 C

5.6 C

5.8 C

5.6 C

9 W/m

0.00 mm

16:25

5.6 C

1010.9 hpa

78 %

1.6 km/h aus 116

3.2 km/h aus S

2.0 C

5.4 C

5.6 C

5.4 C

7 W/m

0.00 mm

16:30

5.4 C

1011.1 hpa

78 %

1.6 km/h aus 114

1.6 km/h aus S

1.9 C

5.2 C

5.4 C

5.2 C

5 W/m

0.00 mm

16:35

5.2 C

1011.1 hpa

78 %

1.6 km/h aus 114

3.2 km/h aus S

1.6 C

5.0 C

5.2 C

5.0 C

0 W/m

0.00 mm

16:40

4.9 C

1011.1 hpa

78 %

1.6 km/h aus 117

3.2 km/h aus S

1.4 C

4.8 C

4.9 C

4.8 C

0 W/m

0.00 mm

16:45

4.7 C

1011.4 hpa

79 %

0.0 km/h aus 118

3.2 km/h aus S

1.4 C

4.6 C

4.7 C

4.6 C

0 W/m

0.00 mm

16:50

4.5 C

1011.4 hpa

79 %

1.6 km/h aus 116

4.8 km/h aus S

1.2 C

4.3 C

4.5 C

4.3 C

0 W/m

0.00 mm

16:55

4.3 C

1011.4 hpa

79 %

1.6 km/h aus 117

3.2 km/h aus S

1.0 C

4.2 C

4.3 C

4.2 C

0 W/m

0.00 mm

17:00

4.2 C

1011.6 hpa

80 %

3.2 km/h aus 117

8.0 km/h aus ESE

1.0 C

3.8 C

4.0 C

4.0 C

0 W/m

0.00 mm

17:05

4.0 C

1011.6 hpa

80 %

4.8 km/h aus 115

9.7 km/h aus ESE

0.9 C

2.9 C

3.1 C

3.8 C

0 W/m

0.00 mm

17:10

3.9 C

1011.6 hpa

81 %

4.8 km/h aus 114

8.0 km/h aus ESE

1.0 C

2.8 C

2.9 C

3.8 C

0 W/m

0.00 mm

17:15

3.8 C

1011.9 hpa

81 %

4.8 km/h aus 116

8.0 km/h aus E

0.9 C

2.7 C

2.8 C

3.7 C

0 W/m

0.00 mm

17:20

3.7 C

1011.9 hpa

81 %

3.2 km/h aus 116

4.8 km/h aus ESE

0.8 C

3.3 C

3.5 C

3.6 C

0 W/m

0.00 mm

17:25

3.6 C

1011.9 hpa

82 %

3.2 km/h aus 117

4.8 km/h aus ESE

0.8 C

3.2 C

3.4 C

3.4 C

0 W/m

0.00 mm

17:30

3.5 C

1011.9 hpa

82 %

1.6 km/h aus 116

3.2 km/h aus ESE

0.7 C

3.3 C

3.5 C

3.3 C

0 W/m

0.00 mm

17:35

3.4 C

1011.9 hpa

82 %

1.6 km/h aus 117

3.2 km/h aus ESE

0.6 C

3.2 C

3.4 C

3.2 C

0 W/m

0.00 mm

17:40

3.2 C

1011.9 hpa

82 %

1.6 km/h aus 116

3.2 km/h aus ESE

0.4 C

3.1 C

3.2 C

3.1 C

0 W/m

0.00 mm

17:45

3.1 C

1012.0 hpa

82 %

1.6 km/h aus 112

4.8 km/h aus ESE

0.3 C

2.9 C

3.1 C

2.9 C

0 W/m

0.00 mm

17:50

2.9 C

1012.0 hpa

83 %

1.6 km/h aus 115

4.8 km/h aus ESE

0.3 C

2.8 C

2.9 C

2.8 C

0 W/m

0.00 mm

17:55

2.9 C

1012.0 hpa

83 %

1.6 km/h aus 117

4.8 km/h aus ESE

0.3 C

2.8 C

2.9 C

2.8 C

0 W/m

0.00 mm

18:00

2.8 C

1011.9 hpa

83 %

1.6 km/h aus 117

4.8 km/h aus ESE

0.2 C

2.7 C

2.8 C

2.7 C

0 W/m

0.00 mm

18:05

2.7 C

1011.9 hpa

83 %

1.6 km/h aus 117

6.4 km/h aus ESE

0.1 C

2.6 C

2.7 C

2.6 C

0 W/m

0.00 mm

18:10

2.7 C

1011.9 hpa

84 %

1.6 km/h aus 117

4.8 km/h aus ESE

0.2 C

2.6 C

2.7 C

2.6 C

0 W/m

0.00 mm

18:15

2.6 C

1011.9 hpa

84 %

3.2 km/h aus 116

6.4 km/h aus ESE

0.1 C

2.1 C

2.2 C

2.4 C

0 W/m

0.00 mm

18:20

2.5 C

1011.9 hpa

84 %

3.2 km/h aus 115

6.4 km/h aus E

0.1 C

2.1 C

2.2 C

2.4 C

0 W/m

0.00 mm

18:25

2.4 C

1011.9 hpa

84 %

4.8 km/h aus 114

8.0 km/h aus E

0.0 C

1.2 C

1.3 C

2.3 C

0 W/m

0.00 mm

18:30

2.4 C

1011.8 hpa

85 %

3.2 km/h aus 114

8.0 km/h aus E

0.1 C

1.9 C

2.1 C

2.3 C

0 W/m

0.00 mm

18:35

2.3 C

1011.8 hpa

85 %

3.2 km/h aus 117

4.8 km/h aus ESE

0.1 C

1.9 C

2.0 C

2.2 C

0 W/m

0.00 mm

18:40

2.3 C

1011.8 hpa

85 %

3.2 km/h aus 117

4.8 km/h aus ESE

0.0 C

1.8 C

1.9 C

2.2 C

0 W/m

0.00 mm

18:45

2.3 C

1012.0 hpa

86 %

1.6 km/h aus 116

3.2 km/h aus ESE

0.2 C

2.2 C

2.3 C

2.2 C

0 W/m

0.00 mm

18:50

2.2 C

1012.0 hpa

85 %

1.6 km/h aus 117

4.8 km/h aus ESE

0.0 C

2.1 C

2.2 C

2.1 C

0 W/m

0.00 mm

18:55

2.1 C

1012.0 hpa

85 %

1.6 km/h aus 117

4.8 km/h aus ESE

-0.1 C

2.0 C

2.1 C

2.0 C

0 W/m

0.00 mm

19:00

2.1 C

1011.9 hpa

86 %

1.6 km/h aus 116

3.2 km/h aus ESE

0.0 C

1.9 C

2.1 C

1.9 C

0 W/m

0.00 mm

19:05

1.9 C

1011.9 hpa

86 %

3.2 km/h aus 115

4.8 km/h aus ESE

-0.2 C

1.4 C

1.6 C

1.8 C

0 W/m

0.00 mm

19:10

1.8 C

1011.9 hpa

86 %

3.2 km/h aus 114

4.8 km/h aus ESE

-0.3 C

1.3 C

1.4 C

1.7 C

0 W/m

0.00 mm

19:15

1.8 C

1011.9 hpa

85 %

1.6 km/h aus 115

4.8 km/h aus ESE

-0.5 C

1.7 C

1.8 C

1.7 C

0 W/m

0.00 mm

19:20

1.6 C

1011.9 hpa

85 %

3.2 km/h aus 117

3.2 km/h aus ESE

-0.6 C

1.1 C

1.2 C

1.5 C

0 W/m

0.00 mm

19:25

1.5 C

1011.9 hpa

85 %

3.2 km/h aus 117

4.8 km/h aus ESE

-0.7 C

0.9 C

1.1 C

1.4 C

0 W/m

0.00 mm

19:30

1.4 C

1012.0 hpa

85 %

3.2 km/h aus 115

6.4 km/h aus ESE

-0.8 C

0.9 C

1.0 C

1.3 C

0 W/m

0.00 mm

19:35

1.3 C

1012.0 hpa

85 %

3.2 km/h aus 117

8.0 km/h aus E

-0.9 C

0.7 C

0.9 C

1.2 C

0 W/m

0.00 mm

19:40

1.3 C

1012.0 hpa

85 %

3.2 km/h aus 117

6.4 km/h aus E

-1.0 C

0.7 C

0.8 C

1.1 C

0 W/m

0.00 mm

19:45

1.2 C

1012.0 hpa

85 %

3.2 km/h aus 115

8.0 km/h aus E

-1.1 C

0.6 C

0.7 C

1.0 C

0 W/m

0.00 mm

19:50

1.1 C

1012.0 hpa

85 %

3.2 km/h aus 113

4.8 km/h aus E

-1.1 C

0.5 C

0.7 C

0.9 C

0 W/m

0.00 mm

19:55

1.1 C

1012.0 hpa

86 %

3.2 km/h aus 114

4.8 km/h aus E

-1.0 C

0.4 C

0.6 C

0.9 C

0 W/m

0.00 mm

20:00

1.1 C

1012.0 hpa

86 %

3.2 km/h aus 117

6.4 km/h aus E

-1.0 C

0.4 C

0.6 C

0.9 C

0 W/m

0.00 mm

20:05

1.0 C

1012.0 hpa

86 %

1.6 km/h aus 115

4.8 km/h aus E

-1.1 C

0.8 C

1.0 C

0.8 C

0 W/m

0.00 mm

20:10

0.9 C

1012.0 hpa

86 %

3.2 km/h aus 117

4.8 km/h aus E

-1.1 C

0.3 C

0.4 C

0.8 C

0 W/m

0.00 mm

20:15

0.9 C

1012.0 hpa

86 %

4.8 km/h aus 117

6.4 km/h aus E

-1.2 C

-0.6 C

-0.5 C

0.8 C

0 W/m

0.00 mm

20:20

0.8 C

1012.0 hpa

86 %

3.2 km/h aus 117

6.4 km/h aus E

-1.2 C

0.2 C

0.3 C

0.7 C

0 W/m

0.00 mm

20:25

0.8 C

1012.0 hpa

86 %

1.6 km/h aus 117

3.2 km/h aus E

-1.3 C

0.7 C

0.8 C

0.7 C

0 W/m

0.00 mm

20:30

0.7 C

1012.0 hpa

86 %

1.6 km/h aus 112

1.6 km/h aus E

-1.4 C

0.6 C

0.7 C

0.6 C

0 W/m

0.00 mm

20:35

0.7 C

1012.0 hpa

86 %

0.0 km/h aus 113

1.6 km/h aus E

-1.4 C

0.6 C

0.7 C

0.6 C

0 W/m

0.00 mm

20:40

0.6 C

1012.0 hpa

86 %

1.6 km/h aus 116

3.2 km/h aus E

-1.5 C

0.5 C

0.6 C

0.5 C

0 W/m

0.00 mm

20:45

0.6 C

1011.9 hpa

86 %

3.2 km/h aus 117

4.8 km/h aus E

-1.5 C

-0.1 C

0.1 C

0.4 C

0 W/m

0.00 mm

20:50

0.4 C

1011.9 hpa

87 %

1.6 km/h aus 116

3.2 km/h aus E

-1.5 C

0.3 C

0.4 C

0.3 C

0 W/m

0.00 mm

20:55

0.4 C

1011.9 hpa

87 %

1.6 km/h aus 116

3.2 km/h aus E

-1.5 C

0.3 C

0.4 C

0.3 C

0 W/m

0.00 mm

21:00

0.4 C

1011.7 hpa

87 %

3.2 km/h aus 117

4.8 km/h aus E

-1.5 C

-0.3 C

-0.2 C

0.3 C

0 W/m

0.00 mm

21:05

0.3 C

1011.7 hpa

87 %

3.2 km/h aus 116

4.8 km/h aus E

-1.6 C

-0.3 C

-0.2 C

0.2 C

0 W/m

0.00 mm

21:10

0.2 C

1011.7 hpa

87 %

1.6 km/h aus 117

3.2 km/h aus E

-1.7 C

0.1 C

0.2 C

0.1 C

0 W/m

0.00 mm

21:15

0.2 C

1011.7 hpa

87 %

0.0 km/h aus 113

1.6 km/h aus E

-1.7 C

0.1 C

0.2 C

0.1 C

0 W/m

0.00 mm

21:20

0.2 C

1011.7 hpa

87 %

0.0 km/h aus 114

1.6 km/h aus E

-1.7 C

0.1 C

0.2 C

0.1 C

0 W/m

0.00 mm

21:25

0.2 C

1011.7 hpa

87 %

0.0 km/h aus 115

0.0 km/h aus ---

-1.7 C

0.1 C

0.2 C

0.1 C

0 W/m

0.00 mm

21:30

0.1 C

1011.5 hpa

87 %

0.0 km/h aus 115

0.0 km/h aus ---

-1.9 C

-0.1 C

0.1 C

-0.1 C

0 W/m

0.00 mm

21:35

0.0 C

1011.5 hpa

87 %

0.0 km/h aus 117

0.0 km/h aus ---

-1.9 C

-0.1 C

0.0 C

-0.1 C

0 W/m

0.00 mm

21:40

-0.1 C

1011.5 hpa

87 %

0.0 km/h aus 117

0.0 km/h aus ---

-2.0 C

-0.2 C

-0.1 C

-0.2 C

0 W/m

0.00 mm

21:45

-0.1 C

1011.5 hpa

87 %

0.0 km/h aus 117

0.0 km/h aus ---

-2.0 C

-0.2 C

-0.1 C

-0.2 C

0 W/m

0.00 mm

21:50

-0.2 C

1011.5 hpa

87 %

0.0 km/h aus 117

0.0 km/h aus ---

-2.1 C

-0.3 C

-0.2 C

-0.3 C

0 W/m

0.00 mm

21:55

-0.2 C

1011.5 hpa

87 %

0.0 km/h aus 116

0.0 km/h aus ---

-2.1 C

-0.3 C

-0.2 C

-0.3 C

0 W/m

0.00 mm

22:00

-0.3 C

1011.5 hpa

87 %

0.0 km/h aus 113

0.0 km/h aus ---

-2.2 C

-0.4 C

-0.3 C

-0.4 C

0 W/m

0.00 mm

22:05

-0.3 C

1011.5 hpa

87 %

0.0 km/h aus 112

0.0 km/h aus ---

-2.2 C

-0.4 C

-0.3 C

-0.4 C

0 W/m

0.00 mm

22:10

-0.4 C

1011.5 hpa

87 %

0.0 km/h aus 117

0.0 km/h aus ---

-2.3 C

-0.5 C

-0.4 C

-0.5 C

0 W/m

0.00 mm

22:15

-0.5 C

1011.4 hpa

87 %

0.0 km/h aus 118

0.0 km/h aus ---

-2.4 C

-0.6 C

-0.5 C

-0.6 C

0 W/m

0.00 mm

22:20

-0.5 C

1011.4 hpa

87 %

0.0 km/h aus 117

0.0 km/h aus ---

-2.4 C

-0.6 C

-0.5 C

-0.6 C

0 W/m

0.00 mm

22:25

-0.6 C

1011.4 hpa

87 %

0.0 km/h aus 116

0.0 km/h aus ---

-2.5 C

-0.7 C

-0.6 C

-0.7 C

0 W/m

0.00 mm

22:30

-0.6 C

1011.3 hpa

88 %

0.0 km/h aus 116

0.0 km/h aus ---

-2.4 C

-0.7 C

-0.6 C

-0.7 C

0 W/m

0.00 mm

22:35

-0.7 C

1011.3 hpa

88 %

0.0 km/h aus 117

0.0 km/h aus ---

-2.4 C

-0.8 C

-0.7 C

-0.8 C

0 W/m

0.00 mm

22:40

-0.7 C

1011.3 hpa

88 %

0.0 km/h aus 116

0.0 km/h aus ---

-2.5 C

-0.8 C

-0.7 C

-0.8 C

0 W/m

0.00 mm

22:45

-0.7 C

1011.2 hpa

88 %

0.0 km/h aus 112

0.0 km/h aus ---

-2.5 C

-0.8 C

-0.7 C

-0.8 C

0 W/m

0.00 mm

22:50

-0.8 C

1011.2 hpa

88 %

0.0 km/h aus 113

0.0 km/h aus ---

-2.5 C

-0.9 C

-0.8 C

-0.9 C

0 W/m

0.00 mm

22:55

-0.8 C

1011.2 hpa

88 %

0.0 km/h aus 117

0.0 km/h aus ---

-2.5 C

-0.9 C

-0.8 C

-0.9 C

0 W/m

0.00 mm

23:00

-0.8 C

1011.1 hpa

88 %

0.0 km/h aus 116

0.0 km/h aus ---

-2.6 C

-0.9 C

-0.8 C

-0.9 C

0 W/m

0.00 mm

23:05

-0.8 C

1011.1 hpa

88 %

0.0 km/h aus 116

0.0 km/h aus ---

-2.6 C

-0.9 C

-0.8 C

-0.9 C

0 W/m

0.00 mm

23:10

-0.8 C

1011.1 hpa

88 %

0.0 km/h aus 116

0.0 km/h aus ---

-2.6 C

-0.9 C

-0.8 C

-0.9 C

0 W/m

0.00 mm

23:15

-0.8 C

1011.0 hpa

88 %

0.0 km/h aus 117

3.2 km/h aus E

-2.6 C

-0.9 C

-0.8 C

-0.9 C

0 W/m

0.00 mm

23:20

-0.9 C

1011.0 hpa

88 %

0.0 km/h aus 118

0.0 km/h aus ---

-2.6 C

-1.0 C

-0.9 C

-1.0 C

0 W/m

0.00 mm

23:25

-0.9 C

1011.0 hpa

89 %

0.0 km/h aus 113

0.0 km/h aus ---

-2.5 C

-1.0 C

-0.9 C

-1.0 C

0 W/m

0.00 mm

23:30

-0.9 C

1011.3 hpa

89 %

0.0 km/h aus 114

0.0 km/h aus ---

-2.5 C

-1.0 C

-0.9 C

-1.0 C

0 W/m

0.00 mm

23:35

-0.9 C

1011.3 hpa

89 %

1.6 km/h aus 114

4.8 km/h aus E

-2.5 C

-1.1 C

-0.9 C

-1.1 C

0 W/m

0.00 mm

23:40

-0.9 C

1011.3 hpa

89 %

3.2 km/h aus 117

4.8 km/h aus E

-2.5 C

-1.7 C

-1.6 C

-1.1 C

0 W/m

0.00 mm

23:45

-1.0 C

1011.0 hpa

89 %

3.2 km/h aus 117

6.4 km/h aus E

-2.6 C

-1.8 C

-1.7 C

-1.1 C

0 W/m

0.00 mm

23:50

-1.0 C

1011.0 hpa

89 %

4.8 km/h aus 117

6.4 km/h aus SE

-2.6 C

-2.7 C

-2.6 C

-1.1 C

0 W/m

0.00 mm

23:55

-1.0 C

1011.0 hpa

89 %

1.6 km/h aus 117

4.8 km/h aus SE

-2.6 C

-1.1 C

-1.0 C

-1.1 C

0 W/m

0.00 mm